Location: Ayer Observatory
(42.2600°N, 71.0700°W)
Time: 03:44:06
(UTC-04:00)

XW-2A - Pass Details

Date: 23 July 2019
Orbit: 432 x 448 km, 97.3° (Epoch: 24 August)

Event Time Altitude Azimuth Distance (km) Brightness Sun altitude
Rises 21:42:32 0° 211° (SSW) 2,394 ? -14.1°
Reaches altitude 10° 21:45:34 10° 243° (WSW) 1,535 ? -14.5°
Maximum altitude 21:46:58 12° 268° (W) 1,411 ? -14.7°
Drops below altitude 10° 21:48:22 10° 293° (WNW) 1,543 ? -14.9°
Sets 21:51:26 0° 326° (NW) 2,421 ? -15.3°
